EST,Max TemperatureF,Mean TemperatureF,Min TemperatureF,Max Dew PointF,MeanDew PointF,Min DewpointF,Max Humidity, Mean Humidity, Min Humidity, Max Sea Level PressureIn, Mean Sea Level PressureIn, Min Sea Level PressureIn, Max VisibilityMiles, Mean VisibilityMiles, Min VisibilityMiles, Max Wind SpeedMPH, Mean Wind SpeedMPH, Max Gust SpeedMPH,PrecipitationIn, CloudCover, Events, WindDirDegrees
2013-2-1,23,21,18,16,11,5,80,68,56,30.20,30.02,29.75,10,7,0,25,14,31,0.01,6,Fog-Snow,276
2013-2-2,19,16,13,16,11,3,92,78,64,30.19,30.07,29.95,10,3,0,23,12,26,0.27,8,Fog-Snow,211
2013-2-3,24,17,9,16,12,7,100,79,57,29.98,29.88,29.79,10,5,1,20,5,26,0.02,8,Snow,260
2013-2-4,19,16,13,15,9,6,84,73,61,30.00,29.95,29.90,10,9,4,20,10,26,T,7,Snow,255
2013-2-5,27,21,15,22,15,10,88,72,55,29.96,29.90,29.84,10,9,2,20,5,25,T,7,Snow,237
2013-2-6,28,24,20,23,15,9,81,66,50,30.38,30.18,29.87,10,10,6,21,9,28,T,6,Snow,268
2013-2-7,31,24,16,20,15,11,80,69,58,30.38,30.28,30.06,10,10,10,17,9,22,T,7,Snow,77
2013-2-8,36,27,17,32,23,14,100,85,69,30.15,29.90,29.74,10,3,0,25,11,33,0.50,8,Fog-Rain-Snow,15
2013-2-9,20,16,11,16,13,8,92,85,77,30.43,30.32,30.13,10,5,2,13,7,17,0.05,7,Snow,286
2013-2-10,41,24,7,28,16,4,84,63,41,30.41,30.23,29.93,10,10,10,15,7,20,T,5,Rain,109
2013-2-11,49,41,32,39,31,21,92,70,48,29.90,29.72,29.58,10,8,1,39,20,56,0.18,8,Rain-Snow,214
2013-2-12,33,32,31,29,25,21,85,79,72,29.98,29.90,29.75,10,9,1,32,18,43,0.01,8,Snow,246
2013-2-13,37,32,26,25,22,21,81,69,56,29.91,29.82,29.74,10,10,7,12,5,14,T,6,Snow,242
2013-2-14,38,32,25,34,28,21,92,76,59,29.91,29.83,29.75,10,8,3,25,11,36,0.12,7,Rain-Snow,210
2013-2-15,37,30,22,29,23,13,82,70,57,30.09,29.94,29.78,10,10,9,29,18,41,T,7,Snow,252
2013-2-16,28,24,20,18,14,7,77,62,46,30.09,30.01,29.89,10,10,5,16,6,18,T,6,Snow,240
2013-2-17,21,17,12,18,10,1,91,75,58,30.24,30.01,29.88,10,6,1,21,13,28,0.01,7,Snow,324
2013-2-18,37,24,10,20,10,5,76,56,36,30.30,30.15,29.87,10,10,9,12,7,16,T,5,Snow,164
2013-2-19,43,33,23,36,26,17,85,67,48,29.84,29.67,29.54,10,7,1,36,20,48,0.32,8,Rain-Snow,222
2013-2-20,23,21,19,18,12,9,84,71,57,30.12,29.95,29.75,10,7,2,23,19,37,T,8,Snow,258
2013-2-21,21,19,16,14,11,9,77,72,67,30.43,30.26,30.07,10,6,2,21,11,25,T,8,Snow,263
2013-2-22,35,28,20,29,23,15,92,74,56,30.40,30.14,29.97,10,8,0,18,9,22,0.04,8,Snow,111
2013-2-23,38,34,30,30,27,23,82,77,72,29.99,29.93,29.89,10,10,10,20,10,24,T,8,Snow,203
2013-2-24,31,30,28,25,24,21,85,77,69,30.10,29.94,29.85,10,6,1,18,11,24,0.01,8,Snow,249
2013-2-25,34,31,27,27,25,22,85,77,69,30.24,30.20,30.12,10,10,8,12,6,15,T,7,Snow,226
2013-2-26,42,34,26,32,26,20,89,69,49,30.23,30.00,29.69,10,8,2,26,13,35,0.89,6,Rain-Snow,84
2013-2-27,36,35,33,34,32,30,100,91,82,29.70,29.61,29.56,10,4,1,24,8,31,0.47,8,Rain-Snow,101
2013-2-28,35,34,32,32,31,29,96,93,89,29.77,29.62,29.53,10,4,0,17,10,24,0.14,8,Fog-Snow,270